Current weather by "City, St" or "zip code"  
 

Current Conditions: PONTIAC

Clear


82.4 F

Last Updated on Jun 17 2024, 10:35 PM CDT
Humidity: 63%
Wind Speed: S 11.4 mph
Barometer 29.97 in
Dewpoint: 68.4 F
Visibility: 10.00 mi
Precip: --
Heat Index: 85.5 F
Wind Chill: NA
Current conditions at:

PONTIAC (KPNT)

Lat: 40.9 Lon: 88.63

active severe weather and emergency alerts image image weather storm and storm spotter reports image weather observation monitoring service image
Active
Alerts
Storm Reports Obs
Monitoring

Sign-up For Email & Text Message Weather Alert Notification Services



Advertise Here

Observation History for PONTIAC


Time Wind
(mph)
Vis
(mi)
Weather Precip (in) Temperature (F) Relative
Humidity
Wind
Chill
(F)
Heat
Index
(F)
Pressure
Air Dwpt altimeter
(in)
sea level
(mb)
Rmks
10:35 PM CDT S 11.4 10.00 Clear -- 82.4 68.4 63% NA 85.5 29.97 1014.9
09:55 PM CDT S 12.7 10.00 Clear -- 83.7 68.9 61% NA 87.3 29.95 1014.2
09:35 PM CDT S 15.0 10.00 Clear -- 84.2 68.9 60% NA 88.0 29.94 1013.9
09:15 PM CDT S 9.2 10.00 Clear -- 85.1 68.5 58% NA 88.7 29.94 1013.6
08:55 PM CDT S 13.9 10.00 Clear -- 86.0 68.0 55% NA 89.4 29.91 1012.9
07:35 PM CDT S 12.8 10.00 Clear -- 90.9 % NA NA 29.89 1012.2
06:55 PM CDT S 17.2 10.00 Partly Cloudy -- 92.8 % NA NA 29.89 1012.2
05:55 PM CDT 10.00 Partly Cloudy -- 93.4 % NA NA 29.89 1012.2
05:35 PM CDT 13.9 10.00 Partly Cloudy -- 94.3 % NA NA 29.89 1012.2
04:15 PM CDT 10.00 Partly Cloudy -- 93.9 % NA NA 29.90 1012.5
03:55 PM CDT S 15.0 10.00 Partly Cloudy -- 95.0 % NA NA 29.91 1012.9
03:15 PM CDT 13.9 10.00 Partly Cloudy -- 95.0 % NA NA 29.92 1013.2
02:55 PM CDT 10.4 10.00 Partly Cloudy -- 94.5 % NA NA 29.92 1013.2
02:35 PM CDT SW 13.9 10.00 Partly Cloudy -- 95.2 % NA NA 29.94 1013.6
02:15 PM CDT 16.1 10.00 Partly Cloudy -- 92.8 62.6 37% NA 93.7 29.94 1013.9
01:35 PM CDT 10.00 Partly Cloudy -- NULL % NA NA M
01:15 PM CDT SW 13.8 10.00 Partly Cloudy -- 93.7 65.5 40% NA 96.4 29.96 1014.6
11:35 AM CDT SW 18.3 10.00 Partly Cloudy -- 91.2 % NA NA 29.97 1014.9
11:15 AM CDT 10.00 Partly Cloudy -- NULL % NA NA M
07:55 AM CDT 12.8 10.00 Clear -- 81.9 69.8 67% NA 85.5 29.99 1015.6
07:15 AM CDT 10.4 10.00 Clear -- 80.4 69.3 69% NA 83.5 29.97 1014.9
06:35 AM CDT S 9.2 10.00 Clear -- 77.9 69.1 74% NA 78.8 29.95 1014.2
06:15 AM CDT S 8.1 10.00 Clear -- 77.0 69.1 77% NA 78.1 29.94 1013.9
05:35 AM CDT S 9.2 10.00 Clear -- 76.8 69.1 77% NA 77.9 29.94 1013.6

Regional Weather Observation


MORRIS-WASHBURN (KC09)

Clear
84.7 F

PERU (KVYS)

Clear
82.6 F

LACON (KC75)

Clear
81.1 F

JOLIET (KJOT)

Clear
85.3 F

CHICAGO/AURORA (KARR)

Clear
86.0 F

BLOOMINGTON/NORM (KBMI)

Clear and Windy
80.1 F

Advertise Here


Advertise Here